LiveATC.Net - Listen to live air traffic control over the Internet!


ICAO: CYVO  IATA: YVO   Airport: Val-D'Or Airport
City: Val-D'Or   State/Province: Quebec
Country: Canada   Continent: North America
CYVO METAR Weather: CYVO 180400Z AUTO 17009KT 9SM BKN130 OVC150 M08/M11 A3000 RMK SLP189
CYVO Flight Activity (FlightAware)
CYVO Webcam:  (Airport Webcams) 

CYVO Gnd/RDO/Center
Feed Status: UP   Listeners: 0
Listen in your browser - HTML5 player (in browser, HTML5)
Click here to listen with your own player (launches your MP3 player)
Archive Access: CYVO Gnd/RDO/Center
FacilityFrequency
Emergency/Guard121.500
Montreal Centre125.900
Rouyn RDO (FSS)118.500
Val-d'Or Ground Services122.600
Val-D'Or VFR En Route126.700

NOTICE

Unauthorized use prohibited. See LiveATC.net Terms of Service


Airport/ARTCC Code
Frequency Search
(e.g., 124.400, 128.75)
Site-wide search
 


Browse LiveATC Feeds
Top 50 LiveATC Feeds
LiveATC Feed Map
Bad Weather Areas

LiveATC FAQ
Offer LiveATC feed
Contact LiveATC.net
Press Inquiries

LiveATC on iPhone
LiveATC on Android

Windows Phone
Windows 8/10

LiveATC Mobile
(Mobile browser)

ATC Audio Archives
Interesting Recordings

LiveATC Forums


Home Page
About LiveATC.net
Make a Donation
Terms of Use
Privacy Policy

Canadian Air Freqs

AIRMETs/SIGMETs

FAA Airport Status
Nat'l Airspace Status
Arrival Demand Charts


Server Software By:
Icecast.org
Liquidsoap